Weather History for KCTY - June, 2013

Change the Weather History Date:

Monday, June 3, 2013

  Actual Average Record
Temperature  
Mean Temperature 80 °F 79 °F  
Max Temperature 90 °F 90 °F 99 °F (2002)
Min Temperature 70 °F 67 °F 61 °F (2011)
Degree Days  
Heating Degree Days 0 0  
Month to date heating degree days 0 0  
Since 1 June heating degree days 0 0  
Since 1 July heating degree days 1133 1306  
Cooling Degree Days 15 14  
Month to date cooling degree days 47 41  
Year to date cooling degree days 582 520  
Since 1 June cooling degree days 47 41  
Growing Degree Days 30 (Base 50)    
Moisture  
Dew Point 72 °F    
Average Humidity 78    
Maximum Humidity 94    
Minimum Humidity 59    
Precipitation  
Precipitation 0.43 in 0.11 in 0.56 in (1999)
Month to date precipitation 1.74 0.31  
Year to date precipitation 14.28 17.48  
Sea Level Pressure  
Sea Level Pressure 29.93 in    
Wind  
Wind Speed 5 mph (SSW)    
Max Wind Speed 16 mph    
Max Gust Speed 24 mph    
T = Trace of Precipitation, MM = Missing Value Source: NWS Daily Summary

Daily Weather History Graph

Daily Weather History Graph

Search for Another Location

Airport or City:

Trip Planner

Search our weather history database for the weather conditions in past years. The results will help you decide how hot, cold, wet, or windy it might be!

Date:

Astronomy

Jun. 03, 2013 Rise Set
Actual Time 6:32 AM EDT 8:29 PM EDT
Civil Twilight 6:05 AM EDT 8:56 PM EDT
Nautical Twilight 5:32 AM EDT 9:29 PM EDT
Astronomical Twilight 4:57 AM EDT 10:03 PM EDT
Moon 3:10 AM EDT (6/3) 4:14 PM EDT (6/3)
Length of Visible Light 14h 51m
Length of Day
13h 57m
Waning Crescent, 22% of the Moon is Illuminated
Jun 3
Waning Crescent
Jun 8
New
Jun 16
First Quarter
Jun 23
Full
Jun 30
Last Quarter

Hourly Weather History & Observations

Time (EDT) Temp. Heat Index Dew Point Humidity Pressure Visibility Wind Dir Wind Speed Gust Speed Precip Events Conditions
12:53 AM 73.9 °F - 71.1 °F 91% 29.94 in - SW 3.5 mph - N/A   Unknown
1:53 AM 73.0 °F - 71.1 °F 93% 29.93 in - Calm Calm - N/A   Unknown
2:53 AM 72.0 °F - 70.0 °F 93% 29.91 in - Calm Calm - N/A   Unknown
3:53 AM 71.1 °F - 69.1 °F 93% 29.91 in - Calm Calm - N/A   Unknown
4:53 AM 72.0 °F - 70.0 °F 93% 29.91 in - Calm Calm - N/A   Unknown
5:53 AM 71.1 °F - 69.1 °F 93% 29.91 in - Calm Calm - N/A   Unknown
6:53 AM 72.0 °F - 70.0 °F 93% 29.92 in - Calm Calm - 0.01 in   Unknown
7:53 AM 73.9 °F - 72.0 °F 93% 29.93 in - Calm Calm - N/A   Unknown
8:53 AM 79.0 °F - 73.9 °F 84% 29.94 in - Calm Calm - N/A   Unknown
9:53 AM 82.9 °F 88.8 °F 73.0 °F 72% 29.94 in - South 9.2 mph - N/A   Unknown
10:53 AM 86.0 °F 93.0 °F 73.0 °F 65% 29.95 in - Variable 5.8 mph - N/A   Unknown
11:53 AM 84.9 °F 90.7 °F 72.0 °F 65% 29.94 in - SW 10.4 mph - N/A   Unknown
12:53 PM 88.0 °F 94.7 °F 72.0 °F 59% 29.94 in - SW 11.5 mph - N/A   Unknown
1:53 PM 87.1 °F 93.6 °F 72.0 °F 61% 29.92 in - SW 10.4 mph - N/A   Unknown
2:53 PM 87.1 °F 94.5 °F 73.0 °F 63% 29.91 in - SW 11.5 mph - N/A   Unknown
3:53 PM 88.0 °F 95.6 °F 73.0 °F 61% 29.89 in - SSW 12.7 mph 18.4 mph N/A   Unknown
4:53 PM 88.0 °F 93.8 °F 71.1 °F 57% 29.88 in - WSW 10.4 mph - N/A   Unknown
5:53 PM 87.1 °F 92.8 °F 71.1 °F 59% 29.88 in - SSW 10.4 mph 17.3 mph N/A   Unknown
6:53 PM 84.0 °F 89.6 °F 72.0 °F 67% 29.89 in - SW 9.2 mph - N/A   Unknown
7:53 PM 82.0 °F 87.4 °F 73.0 °F 74% 29.92 in - SSW 10.4 mph - N/A   Unknown
8:53 PM 80.1 °F 84.2 °F 73.0 °F 79% 29.94 in - SW 5.8 mph - N/A   Unknown
9:53 PM 79.0 °F - 73.0 °F 82% 29.95 in - Calm Calm - N/A   Unknown
10:53 PM 75.0 °F - 73.9 °F 96% 29.99 in - SE 4.6 mph - 0.19 in   Unknown
11:53 PM 75.9 °F - 73.9 °F 94% 29.98 in - SSW 3.5 mph - 0.23 in   Unknown